Location: San Esteban
(27.3404°N, 113.3866°W)
Time: 07:15:01
(UTC+00:00)

Daily predictions for brighter satellites

Satellite Brightness Start Highest point End
(mag) Time Altitude Azimuth Time Altitude Azimuth Time Altitude Azimuth
Cosmos 2237 Rocket 3.9 12:02:03 10° SSE 12:06:55 30° ESE 12:11:47 10° NE
Cosmos 2333 Rocket 4.4 12:13:27 13° N 12:13:27 13° N 12:14:04 10° N
Cosmos 2219 Rocket 4.1 12:17:16 17° N 12:17:16 17° N 12:18:27 10° N
USA 267 3.5 12:06:39 10° SSE 12:12:23 52° SW 12:12:23 52° SW
H-II Stage 2 3.9 12:17:36 19° SE 12:17:36 19° SE 12:19:06 10° ESE
Tsikada Rocket 4.1 12:19:55 55° SW 12:19:55 55° SW 12:24:52 10° S
ATLAS 3B CENTAUR R/B 3.9 12:22:47 39° WSW 12:26:19 52° SSW 12:43:17 10° SE
COSMOS 2428 3.8 12:30:54 29° N 12:30:54 29° N 12:33:50 10° N
Cosmos 1461 4.4 12:30:57 30° N 12:30:57 30° N 12:33:27 10° NNE
Cosmos 468 Rocket 4.2 12:31:23 53° NNW 12:31:23 53° NNW 12:35:32 10° N
Meteor 2-5 Rocket 3.6 12:34:46 53° NW 12:35:52 64° W 12:41:32 10° S
Cosmos 1980 3.9 12:33:47 10° S 12:39:23 71° ESE 12:45:01 10° NNE
Meteor PRIRODA 4.1 12:38:25 10° NNE 12:42:00 59° E 12:45:33 10° S
COSMO-SKYMED 1 3.5 12:38:18 10° SSE 12:42:28 48° ENE 12:46:38 10° N
CZ-3A R/B 3.8 12:39:40 30° W 12:46:42 63° SSW 12:54:39 10° ESE
IRIDIUM 104 4.2 12:42:51 10° SSW 12:47:59 62° W 12:53:10 10° N
Envisat 4.1 12:48:05 10° NNE 12:52:58 46° E 12:57:48 10° S
SJ 16-02 1.1 12:52:18 35° NNW 12:54:03 77° WSW 12:58:24 10° S
IRIDIUM 114 4.5 12:52:07 10° SSW 12:57:08 48° W 13:02:10 10° NNW
CZ-2C R/B 1.3 12:59:15 47° WNW 13:00:02 57° NNW 13:03:58 10° ENE
Aurora 2 Rocket 3.8 12:57:15 22° SW 13:00:22 53° SSE 13:07:16 10° E
Cosmos 1544 Rocket 3.5 12:56:27 10° S 13:00:46 87° E 13:05:05 10° N
IUS R/B (1) 1.9 13:02:29 42° SW 13:03:05 55° SSE 13:05:13 10° E
CZ-4B R/B 1.3 13:02:24 10° S 13:05:41 59° W 13:06:46 37° NW
CZ-4B R/B 2.7 13:02:43 10° N 13:06:14 49° WNW 13:09:51 10° SSW
SKYMED 3 4.4 13:02:04 10° S 13:06:24 81° WSW 13:10:44 10° NNW
USA 276 3.8 13:05:16 20° N 13:06:37 28° NE 13:09:22 10° ESE
Lacrosse 4 Rocket 2.8 13:03:28 10° S 13:07:19 40° ESE 13:11:17 10° NE
Meteor 1-24 Rocket 4.2 13:07:13 19° NW 13:10:33 37° W 13:15:45 10° SSW
OAO 3 Rocket 3.4 13:08:32 30° W 13:10:33 52° SSW 13:15:05 10° SE
NOSS 0 Rocket 4.2 13:08:20 10° SW 13:14:11 44° WNW 13:20:04 10° N
Cosmos 540 Rocket 3.5 13:09:20 10° SSW 13:14:18 54° WNW 13:19:18 10° N
Cosmos 44 4.5 13:13:40 24° W 13:15:05 27° WSW 13:19:31 10° SSW
H-2A R/B 3.9 13:12:09 10° SW 13:13:33 15° WSW 13:13:33 15° WSW
Cosmos 1689 Rocket 3.1 13:13:57 10° SSE 13:16:45 46° ENE 13:19:34 10° N
Okean 1-7 Rocket 3.6 13:12:35 10° N 13:17:07 84° E 13:21:35 10° S
Delta 142 3.5 13:14:47 25° W 13:17:13 86° N 13:22:15 10° E
Cosmos 1844 4.4 13:15:29 21° NW 13:18:29 33° WSW 13:23:35 10° SSW
Gbstr 26 Del rocket 4.5 13:12:27 10° WSW 13:19:26 56° NW 13:27:21 10° NE
BREEZE M DEB (TANK) 3.0 13:20:28 18° N 13:20:28 18° N 13:21:33 10° NNE
MOS 1 Rocket 3.4 13:14:57 10° S 13:20:12 85° W 13:25:09 10° NNW
SAR-Lupe-4 3.7 13:18:32 10° SSE 13:22:06 76° ENE 13:25:41 10° N
Cosmos 1464 Rocket 4.3 13:17:36 10° SSW 13:23:18 41° W 13:29:03 10° NNW
Cosmos 990 Rocket 3.9 13:19:54 10° NNW 13:25:02 75° WSW 13:30:08 10° S
GPS 2-17 Rocket1 4.4 13:22:01 11° WSW 13:25:51 32° S 13:29:58 10° ESE
Cosmos 1455 Rocket 4.0 13:24:12 10° SW 13:27:46 24° W 13:31:20 10° NNW
Cosmos 1626 Rocket 4.4 13:24:48 10° N 13:29:11 54° E 13:33:31 10° SSE
Cosmos 1400 Rocket 2.8 13:25:32 10° S 13:29:33 85° W 13:33:38 10° N
H-2A R/B 3.3 13:26:17 10° N 13:29:38 33° WNW 13:33:00 10° SW
SKYMED 2 4.1 13:26:25 10° SSW 13:30:26 38° W 13:34:30 10° NNW
SEDSat Delta rocket 4.4 13:24:45 10° WSW 13:31:28 63° SSE 13:37:53 10° ENE
Atlas Centaur 2 3.1 13:25:11 15° W 13:32:14 77° N 13:40:50 10° ENE
SAR-Lupe-1 3.9 13:29:28 10° S 13:33:01 75° WSW 13:36:36 10° NNW
SL-4 R/B 2.2 13:33:23 10° WSW 13:36:50 41° NW 13:40:34 10° NNE
SL-16 R/B 2.6 13:32:00 10° S 13:37:35 69° ESE 13:43:13 10° NNE
Cosmos 1844 Rocket 4.2 13:39:03 13° W 13:40:44 14° W 13:43:37 10° SW
Meteor 1-21 Rocket 4.3 13:35:20 10° N 13:41:05 82° W 13:46:56 10° S
OAO 2 Rocket 4.3 13:37:56 13° WNW 13:41:45 33° N 13:46:12 10° ENE
SL-19 R/B 3.9 13:39:05 10° N 13:42:49 71° WNW 13:46:03 10° SSW
Chandra Rocket (1) 1.3 13:39:13 13° W 13:42:50 72° N 13:45:18 10° E
NOSS 3-2 (A) 3.1 13:39:12 10° SSW 13:44:33 75° WNW 13:50:29 10° NNE
Cosmos 841 Rocket 4.3 13:40:40 10° SW 13:44:59 27° WNW 13:49:22 10° N
PSLV R/B 4.3 13:43:46 10° N 13:47:31 40° WNW 13:51:19 10° SW
ATLAS CENTAUR R/B 1.1 13:45:17 10° SW 13:49:01 55° WNW 13:52:38 10° NNE
Cosmos 2278 Rocket 2.3 13:43:46 10° NNW 13:49:27 83° ENE 13:55:06 10° SSE
CZ-4B R/B 3.7 13:44:12 10° NNE 13:49:49 69° ESE 13:55:19 10° S
Cosmos 2237 Rocket 3.1 13:46:13 10° WSW 13:50:51 26° WNW 13:55:32 10° N
GPS 2-04 Rocket1 3.0 13:47:27 10° WNW 13:51:31 68° NNE 13:55:40 10° ESE
H-2A R/B 2.6 13:47:25 10° N 13:51:55 77° WNW 13:56:23 10° SSW
Cosmos 1300 3.3 13:48:58 10° S 13:52:42 62° E 13:56:28 10° NNE
Cosmos 1898 Rocket 3.8 13:47:59 10° NNW 13:52:53 44° W 13:57:46 10° S
Okean O Rocket 2.0 13:48:38 10° NNE 13:52:59 69° ESE 13:57:16 10° S
SMAP 3.0 13:48:37 10° N 13:53:16 81° WNW 13:57:55 10° SSW
CZ-2C R/B 3.4 13:48:20 10° SSE 13:53:20 53° ENE 13:58:26 10° N
NOSS 3-2 (C) 3.6 13:48:19 10° SSW 13:53:37 69° ESE 13:59:25 10° NNE
PAYLOAD B 4.2 13:48:26 10° N 13:54:00 73° WNW 13:59:34 10° SSW
IUS-7 SRM-1 3.6 13:52:52 10° W 13:55:50 82° S 14:07:38 10° E
Spot 2 4.2 13:53:03 10° N 13:56:54 46° WNW 14:00:50 10° SSW
Cosmos 1953 3.8 13:54:21 10° WSW 13:56:57 17° WNW 13:59:33 10° NW
YAOGAN 6 3.9 13:57:11 10° NNW 14:00:00 21° WNW 14:02:49 10° SW
AQUARIUS 4.1 13:56:49 10° N 14:01:18 74° WNW 14:05:45 10° SSW
Cosmos 1092 Rocket 4.0 13:55:53 10° N 14:02:04 88° W 14:08:15 10° S
